User: anonymous   Login
Location: Ku?niki
(51.4449°N, 17.8974°E)
Time: 03:09:07
(UTC+00:00)
Language:

ARIANE 5 R/B - Orbit

View from above orbital plane
View from above orbital plane
View from above satellite
View from above satellite

Ground track
Ground track

The orbit data is extracted from the following two-line orbital elements,

1 36125U 09073B   20297.76168729 0.00000070  00000-0  98574-5 0    00
2 36125  98.1826 356.1790 0026512 338.8284  21.1714 14.77132221    02
Epoch (UTC): 23 October 2020 18:16:49
Eccentricity: 0.0026512
inclination: 98.1826°
perigee height: 620 km
apogee height: 657 km
right ascension of ascending node: 356.1790°
argument of perigee: 338.8284°
revolutions per day: 14.77132221
mean anomaly at epoch: 21.1714°
orbit number at epoch: 0

The dashed part of the orbit path shows where the satellite is in the earth's shadow,  

DLR